Location: Staunton
(38.1490°N, 79.0720°W)
Time: 17:46:05
(UTC-04:00)

ISS - Pass Details

Date: 25 March 2017
Orbit: 399 x 409 km, 51.6° (Epoch: 26 March)

Event Time Altitude Azimuth Distance (km) Brightness Sun altitude
Exits shadow 05:35:19 15° 166° (SSE) 1,197 -1.5 -19.4°
Drops below altitude 10° 05:36:03 10° 159° (SSE) 1,462 -1.0 -19.3°
Sets 05:38:13 0° 150° (SSE) 2,319 0.2 -18.9°
